Simultaneous Nadir Overpasses (SNOs) Predictions

Prediction of SNOs between LANDSAT-8 and METOP-B Satellite Orbit:

Table of predicted SNOs for the next 14.0 days since TLE Epoch: 12/28/2024
Index Date (LANDSAT-8) Time (LANDSAT-8) Lat,Lon (LANDSAT-8) SZA (LANDSAT-8 ) Date (METOP-B) Time (METOP-B) Lat,Lon (METOP-B) SZA (METOP-B ) Distance(km) Time Diff (sec)
1 12/29/2024 14:06:44 81.43, 13.61 106.93 12/29/2024 14:06:14 81.43, 13.67 106.92 1.06 30
2 12/29/2024 14:56:11 -81.43,-178.85 73.09 12/29/2024 14:56:55 -81.43,-179.03 73.09 3.09 44
3 01/01/2025 09:40:56 81.42, 79.91 106.67 01/01/2025 09:40:52 81.43, 80.03 106.68 2.01 4
4 01/01/2025 10:30:22 -81.44,-112.13 73.30 01/01/2025 10:31:32 -81.43,-112.23 73.28 1.91 70
5 01/04/2025 04:25:41 -81.43, -21.11 73.61 01/04/2025 04:24:50 -81.43, -21.04 73.63 1.27 51
6 01/04/2025 05:15:07 81.43, 146.58 106.39 01/04/2025 05:15:30 81.43, 146.64 106.41 1.10 23
7 01/06/2025 23:59:52 -81.42, 45.16 74.00 01/06/2025 23:59:29 -81.42, 45.05 74.02 1.93 23
8 01/07/2025 00:49:18 81.42,-147.18 106.00 01/07/2025 00:50:09 81.43,-147.32 106.02 2.32 51
9 01/09/2025 18:44:33 81.43, -55.83 105.62 01/09/2025 18:43:24 81.43, -55.68 105.61 2.49 69



Historial Predications of SNOs between LANDSAT-8 and METOP-B
